User: anonymous   Login
Location: Hamburg
(53.5500°N, 10.0000°E)
Time: 11:49:26
(UTC+02:00)
Language:

Iridium 10 - Orbit

View from above orbital plane
View from above orbital plane
View from above satellite
View from above satellite

Ground track
Ground track

The orbit data is extracted from the following two-line orbital elements,

1 24839U 97030D   15182.36117419  .00000214  00000-0  69480-4 0  9992
2 24839 086.3969 289.6986 0002247 094.0034 326.2149 14.34215209944210
Epoch (UTC): 01 July 2015 08:40:05
Eccentricity: 0.0002247
inclination: 86.3969°
perigee height: 776 km
apogee height: 779 km
right ascension of ascending node: 289.6986°
argument of perigee: 94.0034°
revolutions per day: 14.34215209
mean anomaly at epoch: 326.2149°
orbit number at epoch: 94421

The dashed part of the orbit path shows where the satellite is in the earth's shadow,  

DLR